Regional Weather Roundup
Issued by NWS

Home | Current Version | Previous Version | Text Only | Print | Product List | Glossary Off
Versions: 1 2 3 4 5 6 7 8 9 10 11 12 13 14 15 16 17 18 19 20 21 22 23 24 25 26 27 28 29 30 31 32 33 34 35 36 37 38 39 40 41 42 43 44 45 46 47 48 49 50

000
ASUS43 KFSD 301702
RWRSD

WEATHER ROUNDUP FOR SOUTH DAKOTA
NATIONAL WEATHER SERVICE SIOUX FALLS SD
1100 AM CST FRI JAN 30 2015

NOTE: "FAIR" INDICATES FEW OR NO CLOUDS BELOW 12,000 FEET WITH NO
SIGNIFICANT WEATHER AND/OR OBSTRUCTIONS TO VISIBILITY.


SDZ001>005-009-010-012>017-301800-
NORTHWEST AND NORTH CENTRAL SOUTH DAKOTA

CITY           SKY/WX    TMP DP  RH WIND       PRES   REMARKS
BUFFALO          N/A     38  27  64 W10       30.12R
FAITH            N/A     36  20  52 W7        30.17F
MOBRIDGE       SUNNY     28  22  78 S9        30.18F WCI  19
$$

SDZ012>016-024>037-041>051-057-063-072>074-301800-
SOUTHWEST AND SOUTH CENTRAL SOUTH DAKOTA

CITY           SKY/WX    TMP DP  RH WIND       PRES   REMARKS
RAPID CTY ARPT PTSUNNY   38  25  59 NW7       30.18R
PIERRE         SUNNY     32  25  75 S10       30.20F WCI  24
CUSTER           N/A    N/A N/A N/A MISG      30.17S
ELLSWORTH AFB  PTSUNNY   38  23  54 NW6       30.17S
PHILIP         PTSUNNY   31  24  75 W3        30.19F
PINE RIDGE     PTSUNNY   41  22  46 SW7       30.20R
WINNER         FAIR      40  25  55 S23G32    30.22F
$$

SDZ004>011-016>023-039-040-301800-
NORTHEAST SOUTH DAKOTA

CITY           SKY/WX    TMP DP  RH WIND       PRES   REMARKS
ABERDEEN       SUNNY     29  23  78 S18       30.28S WCI  16
WATERTOWN      SUNNY     27  20  75 S15       30.30F WCI  15
SISSETON         N/A     26  20  77 S17       30.31F WCI  13
$$

SDZ017-020-022-023-036>040-048>070-301800-
SOUTHEAST SOUTH DAKOTA

CITY           SKY/WX    TMP DP  RH WIND       PRES   REMARKS
SIOUX FALLS    MOSUNNY   27  21  78 S16       30.40F WCI  15
HURON          SUNNY     29  23  78 S17G23    30.29F WCI  17
MITCHELL       SUNNY     29  24  82 S17       30.34F WCI  17
YANKTON        MOSUNNY   28  25  86 SE14      30.42F WCI  17
$$

ABBREVIATIONS USED IN REMARKS
   TC - TEMPERATURE IN CELSIUS
  WCI - WIND CHILL INDEX
   HX - HEAT INDEX
  VSB - VISIBILITY



USA.gov is the U.S. government's official web portal to all federal, state and local government web resources and services.